Temperature
30 31 31 31 31 31 31 30 29 29 29 29 28 27 27 26 25 25 24 24 23 22 21 20 20 19 19 18 18 18 17 17 17 17 16 16 16 16 15 15 15 15 15 15
29 31 31 30 31 31 31 30 30 29 29 29 29 27 26 26 25 25 24 23 22 21 21 20 19 19 18 18 18 17 17 17 16 16 16 16 16 15 15 15 15 15 15 15
28 30 30 29 30 30 30 30 30 29 29 29 28 27 26 26 25 24 24 23 22 21 20 19 19 19 18 18 17 17 16 16 16 16 16 16 15 15 15 15 15 15 15 15
28 28 27 28 30 30 30 29 30 29 29 28 27 26 25 25 25 24 23 22 21 20 20 19 19 18 18 17 17 17 16 16 16 15 15 16 15 15 15 15 15 15 14 15
27 27 27 28 29 29 28 28 29 28 28 27 27 26 25 25 24 23 22 21 21 20 20 19 18 18 17 17 17 16 16 16 15 15 15 15 15 15 15 15 15 15 14 14
26 26 26 27 28 29 28 27 28 27 26 26 26 25 25 24 23 22 21 21 20 20 19 18 18 17 17 17 16 16 16 16 15 15 15 15 15 15 15 15 15 15 14 14
26 26 26 27 28 28 26 25 26 26 25 25 25 24 23 22 22 21 21 20 19 19 18 17 17 17 16 16 16 16 15 15 15 15 15 15 15 15 15 15 15 14 14 14
26 25 25 27 27 26 25 25 25 25 24 24 23 23 22 21 21 20 20 19 18 18 17 17 17 16 16 16 15 15 15 15 15 15 15 15 15 15 15 15 15 14 14 14
26 25 25 26 26 25 25 24 24 24 23 23 22 22 21 20 20 19 19 18 18 17 17 16 16 16 15 15 15 15 15 15 15 15 15 15 15 15 15 15 14 14 14 14
24 25 25 25 25 24 23 23 23 23 22 22 21 21 20 20 19 18 18 17 17 17 16 16 15 15 15 15 15 15 14 15 15 15 15 15 15 15 15 14 14 14 14 14
24 24 24 24 23 23 23 22 22 22 21 21 21 20 19 19 18 18 17 17 16 16 16 15 15 15 15 15 14 14 14 14 14 15 15 15 15 15 14 14 14 14 14 14
23 23 23 23 22 22 22 22 21 21 20 20 20 19 19 18 17 17 17 16 16 16 15 15 15 15 14 14 14 14 14 14 14 14 14 14 14 14 14 14 14 14 14 14
22 22 22 22 22 21 21 21 21 20 20 20 19 19 18 18 17 16 16 16 15 15 15 15 14 14 14 14 14 14 14 14 14 14 14 14 14 14 14 14 14 14 14 13
21 21 21 21 21 21 21 20 20 20 19 19 18 18 18 17 16 16 16 15 15 15 14 14 14 14 14 14 14 14 14 14 14 14 14 14 14 14 14 14 14 14 14 13
20 20 20 20 20 20 20 20 20 19 19 18 18 17 17 16 16 15 15 15 14 14 14 14 14 14 14 14 14 14 14 14 14 14 14 14 14 14 14 14 14 14 14 13
19 19 19 19 19 19 19 19 19 19 18 18 17 17 16 16 15 15 14 14 14 14 14 14 13 13 13 13 14 13 14 14 14 14 14 14 14 14 14 14 14 14 14 13
19 19 18 18 18 18 18 18 18 18 17 17 17 16 16 15 15 14 14 14 14 13 13 13 13 13 13 13 13 13 13 14 14 14 14 14 14 14 14 14 14 14 14 13
18 18 18 18 17 17 17 17 17 17 16 16 16 15 15 15 14 14 14 13 13 13 13 13 13 13 13 13 13 13 13 14 14 14 14 14 14 14 14 14 14 13 13 13
18 17 17 17 17 17 16 16 16 16 16 15 15 15 14 14 14 13 13 13 13 13 13 13 13 13 13 13 13 13 13 13 14 14 14 14 14 14 13 13 13 13 13 13
16 16 16 16 16 16 15 15 15 15 15 15 14 14 14 14 13 13 13 13 13 13 13 13 12 12 12 13 13 13 13 13 13 13 13 13 13 13 13 13 13 13 13 13
15 15 15 15 15 15 15 14 14 14 14 14 14 13 13 13 13 13 13 12 13 12 12 12 12 12 12 12 13 13 13 13 13 13 13 13 13 13 13 13 13 13 12 12
14 14 14 14 14 14 14 14 13 13 13 13 13 13 13 13 12 12 12 12 12 12 12 12 12 12 12 12 12 13 13 13 13 13 13 13 13 13 13 13 12 12 12 12
13 13 13 13 13 13 13 13 13 13 13 13 13 12 12 12 12 12 12 12 12 12 12 12 12 12 12 12 12 13 13 13 13 13 13 13 13 13 12 12 12 12 12 11
13 13 13 13 13 13 13 13 13 13 13 12 12 12 12 12 12 12 12 12 12 12 12 12 12 12 12 12 12 12 12 12 13 13 12 12 12 12 12 12 12 11 11 11
12 12 13 12 13 13 12 12 12 12 12 12 12 12 12 12 12 12 12 12 12 12 12 12 12 12 12 12 12 12 12 12 12 12 12 12 12 12 12 11 11 11 11 11
12 12 12 12 12 12 12 12 12 12 13 13 12 12 12 12 12 12 12 12 12 12 12 12 12 12 11 11 11 11 11 12 12 12 11 11 11 11 11 11 11 11 10 10
12 12 12 12 12 12 12 12 12 12 12 12 12 12 12 12 12 12 12 12 12 12 11 11 11 11 11 11 11 11 11 11 11 11 11 11 11 10 10 10 10 10 10 10
Wind_Speed
15 14 13 12 12 11 11 11 10 8 7 3 2 2 4 3 3 3 3 3 3 3 3 3 2 2 1 0 1 1 2 2 2 2 2 2 2 2 2 2 3 2 3 3
15 15 14 15 13 12 11 10 9 8 6 3 1 3 3 3 3 3 3 3 3 3 3 2 2 1 1 1 0 1 2 2 1 1 2 2 2 2 2 2 2 2 3 3
15 13 15 15 11 10 9 9 8 8 4 2 0 1 1 2 2 3 3 3 3 2 2 1 1 2 1 1 1 1 1 1 1 1 1 1 2 2 2 2 2 2 3 2
13 13 15 10 8 8 7 8 6 5 4 3 2 1 1 2 1 1 1 3 3 2 1 1 1 1 1 1 1 1 1 1 1 2 2 2 2 2 2 2 2 3 3 3
11 13 12 9 7 7 7 7 5 4 5 4 3 2 0 2 2 2 1 2 3 2 2 1 0 1 1 1 2 2 1 2 2 2 2 2 2 3 2 2 3 3 3 3
11 13 14 6 4 6 8 7 4 5 4 4 4 5 1 2 2 2 2 2 2 1 1 1 0 1 1 1 2 2 2 2 2 3 3 3 3 3 2 3 3 3 2 2
14 14 10 4 5 7 7 3 4 4 4 4 4 3 1 1 2 3 2 1 1 1 1 1 1 1 1 2 2 2 2 2 2 3 3 2 2 2 3 3 3 3 2 2
11 13 9 3 5 4 3 3 3 3 3 4 3 1 1 1 2 2 2 1 1 1 1 1 1 1 2 2 2 1 1 2 2 2 3 2 3 3 3 3 3 3 3 3
6 5 1 3 3 4 3 4 4 4 4 3 2 1 1 1 1 1 1 1 1 1 1 1 1 2 2 2 1 1 2 2 3 3 2 2 3 4 3 3 3 3 2 3
5 4 3 3 3 3 4 3 4 4 3 2 2 2 2 1 1 1 1 1 1 2 2 2 2 2 2 1 1 2 3 3 3 3 2 1 2 2 2 2 2 2 2 2
7 5 5 4 4 4 4 3 3 3 3 2 2 2 2 2 2 1 2 2 2 2 3 3 3 3 3 2 2 3 4 4 3 3 2 2 2 2 2 1 2 3 2 2
5 4 4 5 4 5 4 5 4 3 4 3 3 3 2 2 2 2 3 3 3 4 4 4 4 4 3 3 3 4 5 4 3 3 2 2 2 1 1 2 3 4 3 2
5 7 6 6 5 4 3 4 4 3 4 4 3 3 3 3 3 3 4 4 4 5 5 5 5 4 4 4 4 5 5 4 4 3 3 3 3 3 2 1 1 3 4 4
6 6 7 7 6 5 5 5 4 4 3 3 3 3 3 3 3 4 4 4 4 4 5 5 5 5 5 4 4 4 5 5 4 4 3 3 4 3 3 3 2 2 3 5
7 7 7 7 7 6 6 5 4 4 4 4 3 3 3 3 3 3 3 4 4 5 4 5 4 4 4 5 5 5 5 4 4 4 4 4 4 4 4 3 2 2 2 3
7 8 7 7 6 6 6 6 5 4 4 4 4 3 3 2 2 3 3 3 4 4 4 4 4 4 4 4 4 5 4 5 5 5 4 4 4 3 2 2 2 2 2 2
6 7 7 7 7 6 6 5 5 4 4 4 4 3 2 2 2 2 2 2 2 3 3 3 3 2 3 4 4 5 4 4 6 5 4 4 3 3 2 2 2 2 2 4
5 6 6 6 6 6 5 5 5 5 4 4 3 2 3 3 2 2 2 2 1 2 2 2 2 2 3 4 3 4 4 4 4 4 4 3 3 3 3 3 3 3 2 3
5 5 6 5 5 4 5 5 4 4 4 3 2 2 2 2 2 2 2 2 2 2 2 2 1 2 4 3 3 3 5 5 4 4 3 3 3 3 3 3 2 2 2 2
5 5 5 5 5 4 3 4 5 4 4 3 2 2 2 2 1 1 1 2 2 2 2 2 2 3 3 3 4 5 5 5 4 3 2 2 2 3 3 2 1 1 1 1
4 4 5 5 4 4 3 3 4 4 4 3 2 1 1 1 1 1 2 3 1 1 1 1 2 2 3 3 4 5 4 4 3 2 2 2 3 2 2 1 2 2 1 1
4 4 4 5 4 3 3 3 4 4 3 2 2 1 1 1 0 1 1 2 1 0 1 2 3 2 2 3 4 5 4 4 3 2 3 3 3 2 2 2 2 2 1 1
4 4 4 4 3 3 3 3 3 3 2 2 2 2 2 2 1 1 1 1 1 1 2 2 1 2 2 3 4 5 4 4 3 3 3 3 2 1 1 2 2 1 1 0
4 4 3 3 2 2 2 2 2 1 1 1 1 1 1 1 1 1 1 0 1 2 1 1 3 2 2 3 4 4 4 3 3 2 2 1 1 1 2 1 1 1 1 1
3 3 3 3 2 1 1 1 1 1 2 1 1 0 1 2 2 1 1 2 2 1 1 1 4 3 3 3 3 3 3 2 1 1 1 2 2 1 1 0 0 0 1 1
2 2 2 3 3 2 2 2 2 2 2 2 1 1 2 2 1 0 1 1 0 1 1 0 1 2 2 2 2 3 3 1 1 1 1 1 1 1 0 0 0 1 1 1
2 2 1 2 2 3 3 3 2 2 3 2 2 2 1 1 1 1 1 1 1 1 1 1 1 1 1 1 1 2 2 1 1 1 1 0 0 0 1 1 1 1 1 1
Wind_Direction
271 275 275 276 272 262 259 270 275 273 271 240 156 136 133 138 155 163 147 142 122 113 106 105 104 111 110 73 160 168 160 180 191 194 211 206 200 200 219 238 242 239 238 246
270 270 276 274 271 268 264 266 269 274 273 260 117 100 120 138 178 172 163 155 127 111 107 110 122 136 128 148 62 152 170 186 202 198 225 216 199 201 216 227 236 242 240 240
268 271 273 265 269 267 271 274 273 277 274 290 70 29 138 176 220 186 172 148 127 123 134 150 165 142 148 138 152 164 187 176 170 204 227 224 221 209 218 219 230 243 250 242
267 265 262 267 282 281 277 281 286 290 292 303 311 323 170 199 210 123 153 132 122 133 160 181 170 149 124 173 157 190 213 214 203 214 224 234 233 223 225 224 237 245 253 242
267 266 262 258 276 289 288 283 301 300 297 306 314 266 179 56 74 96 120 125 131 174 192 184 190 173 164 208 191 206 226 238 229 224 234 234 244 236 233 236 238 237 246 236
257 265 270 267 277 284 276 268 342 358 349 331 303 278 277 48 45 91 100 120 134 165 170 156 152 192 203 235 226 227 237 255 241 234 233 235 244 242 237 233 234 235 241 245
253 258 256 273 291 283 271 296 344 338 333 325 309 302 333 73 86 106 119 138 147 167 168 162 189 203 218 239 244 239 230 248 247 243 236 226 246 246 243 240 234 236 234 238
249 257 253 305 287 297 354 347 329 324 322 327 329 1 98 89 121 142 148 133 155 134 122 158 197 205 231 248 258 257 251 255 259 251 254 240 236 242 234 237 238 233 231 244
266 261 346 350 347 16 25 4 350 336 337 338 314 257 235 187 169 176 164 160 181 182 194 202 220 215 236 265 257 256 264 268 269 257 245 241 244 246 229 227 240 248 245 253
280 262 290 307 335 358 22 354 323 320 323 312 290 271 257 232 206 201 188 198 225 219 214 226 233 237 241 254 266 264 260 265 253 246 238 229 258 266 263 257 258 268 271 277
272 268 285 306 340 350 345 323 314 329 318 299 271 264 251 220 196 214 240 230 222 228 227 228 231 236 245 237 246 264 267 261 254 254 251 233 234 269 270 268 229 233 254 263
283 319 310 301 317 329 322 314 306 300 291 288 272 262 238 224 220 215 230 230 224 225 230 230 230 239 245 244 245 255 259 254 256 255 249 240 228 254 274 228 208 196 200 207
328 328 316 309 305 314 312 300 292 286 281 286 281 267 232 218 219 222 228 231 234 234 230 232 232 238 243 243 246 248 254 253 258 259 259 252 233 226 235 219 213 219 218 207
326 318 307 306 309 308 304 295 297 296 288 278 273 270 244 227 227 225 229 236 239 239 232 232 236 238 240 239 235 235 248 248 249 254 257 252 247 241 230 230 216 225 225 212
313 307 301 300 299 304 304 301 295 289 293 286 270 264 248 227 229 235 238 236 236 239 242 239 243 247 243 232 225 235 246 251 254 255 256 251 249 248 238 239 228 212 188 185
304 304 301 296 300 305 301 292 289 286 284 283 276 263 258 243 235 235 243 244 239 238 243 250 250 248 232 227 234 240 238 233 245 262 263 259 248 248 251 246 242 214 206 177
289 292 293 297 302 301 299 299 300 293 283 284 283 271 249 234 233 230 226 233 247 260 257 249 237 223 226 227 237 250 246 229 233 253 259 261 257 257 257 262 262 255 225 171
273 284 293 300 306 305 306 307 306 306 297 283 278 257 247 238 231 234 218 218 221 249 269 268 229 212 226 232 241 260 261 241 230 246 254 255 253 257 262 248 252 260 238 176
298 305 306 309 311 313 311 309 315 319 317 303 284 263 257 240 240 240 222 222 238 244 256 275 244 234 248 242 246 256 261 254 239 239 254 242 239 247 257 259 254 252 232 194
334 328 326 329 329 332 328 331 330 328 321 316 311 285 270 250 238 232 222 236 246 262 253 245 221 237 256 246 237 256 261 263 260 250 235 243 244 246 260 271 275 277 243 218
342 345 346 341 339 352 355 348 340 333 333 329 323 308 303 311 279 227 223 243 258 299 277 211 228 244 256 262 235 250 258 260 258 252 249 250 243 241 259 287 295 294 291 261
1 358 358 351 355 359 7 5 355 344 349 360 359 357 2 5 333 302 301 304 299 41 242 237 231 217 250 269 257 259 256 257 247 245 253 245 236 224 232 242 258 268 279 299
6 3 1 358 2 5 13 11 6 1 7 13 17 24 8 354 305 270 280 290 288 207 231 243 160 145 214 243 257 264 261 257 253 249 257 259 240 211 218 243 257 232 182 207
1 0 360 359 1 7 358 353 356 360 359 352 360 14 326 315 321 306 313 178 149 154 249 167 144 162 242 260 268 274 278 278 268 260 278 292 274 237 231 245 249 186 137 131
353 350 358 357 345 340 334 309 312 321 299 284 273 212 258 269 273 294 349 46 99 172 280 194 187 207 243 271 278 286 287 297 321 351 322 305 301 292 255 202 152 149 123 111
341 334 359 345 343 338 326 316 300 281 275 280 279 263 256 248 254 260 86 106 127 255 285 342 191 200 233 271 290 301 309 331 18 355 335 335 359 9 341 176 129 123 111 110
341 345 344 339 343 337 328 326 332 325 313 314 307 300 294 314 330 324 7 30 2 287 283 275 253 222 240 267 302 313 314 316 338 344 339 2 48 68 80 90 102 95 92 95
Height
1455 1449 1449 1450 1451 1450 1455 1457 1464 1465 1465 1463 1463 1467 1470 1474 1477 1479 1481 1484 1485 1487 1489 1491 1492 1493 1494 1495 1495 1495 1495 1495 1495 1495 1496 1496 1496 1496 1496 1496 1496 1496 1496 1496
1459 1451 1449 1451 1449 1450 1451 1452 1456 1459 1462 1458 1460 1465 1469 1473 1476 1478 1481 1483 1485 1487 1489 1490 1491 1492 1493 1494 1494 1494 1493 1493 1493 1493 1494 1494 1493 1494 1494 1494 1494 1493 1493 1493
1464 1454 1454 1459 1450 1449 1451 1449 1453 1460 1461 1459 1462 1465 1469 1472 1475 1476 1479 1482 1484 1486 1488 1489 1490 1490 1491 1491 1492 1492 1492 1492 1492 1491 1491 1491 1491 1491 1491 1491 1491 1491 1491 1491
1462 1463 1475 1458 1444 1445 1449 1451 1451 1454 1457 1460 1462 1466 1469 1471 1474 1477 1478 1480 1483 1485 1486 1488 1488 1488 1488 1489 1490 1490 1490 1490 1490 1489 1490 1490 1490 1490 1489 1489 1489 1489 1489 1489
1465 1467 1463 1453 1448 1448 1453 1455 1452 1456 1458 1459 1463 1465 1468 1470 1472 1474 1478 1480 1482 1484 1485 1485 1486 1486 1486 1487 1488 1488 1488 1488 1488 1488 1488 1488 1487 1487 1487 1487 1487 1487 1487 1486
1464 1472 1474 1459 1449 1449 1452 1460 1456 1458 1459 1461 1463 1465 1468 1470 1471 1474 1477 1479 1480 1482 1483 1484 1484 1484 1485 1485 1486 1486 1486 1486 1486 1486 1486 1485 1485 1485 1486 1485 1485 1485 1485 1484
1462 1464 1460 1452 1450 1451 1464 1467 1460 1461 1461 1462 1464 1467 1469 1469 1471 1473 1475 1477 1478 1480 1481 1482 1482 1482 1482 1483 1483 1483 1483 1483 1483 1483 1484 1484 1484 1484 1484 1483 1483 1482 1482 1481
1459 1465 1464 1451 1452 1457 1462 1461 1461 1461 1462 1463 1465 1466 1467 1469 1470 1471 1473 1475 1476 1477 1478 1479 1479 1480 1480 1480 1481 1481 1481 1481 1481 1481 1481 1481 1481 1481 1482 1481 1480 1479 1479 1478
1454 1457 1455 1454 1455 1457 1459 1461 1461 1462 1462 1464 1465 1466 1467 1467 1468 1469 1470 1472 1473 1474 1475 1476 1477 1477 1477 1477 1477 1477 1478 1478 1478 1478 1478 1478 1478 1479 1479 1478 1477 1477 1476 1476
1452 1452 1453 1454 1456 1457 1459 1461 1462 1462 1462 1463 1464 1465 1465 1466 1466 1468 1469 1470 1470 1471 1472 1473 1474 1475 1475 1475 1474 1474 1475 1475 1475 1475 1476 1476 1476 1476 1476 1475 1475 1475 1474 1473
1453 1453 1454 1454 1456 1457 1458 1459 1460 1461 1462 1462 1462 1463 1464 1464 1465 1466 1467 1468 1468 1469 1469 1470 1471 1471 1471 1471 1472 1472 1472 1472 1473 1473 1473 1473 1473 1473 1473 1473 1473 1472 1471 1471
1456 1455 1455 1456 1456 1456 1457 1458 1459 1459 1460 1461 1461 1461 1461 1461 1463 1463 1464 1465 1465 1466 1466 1467 1467 1467 1468 1468 1468 1469 1469 1470 1470 1471 1471 1471 1470 1470 1470 1470 1470 1470 1469 1468
1455 1455 1455 1455 1456 1456 1456 1457 1457 1457 1458 1458 1458 1458 1458 1459 1460 1460 1461 1462 1462 1462 1463 1463 1463 1463 1464 1465 1465 1466 1466 1467 1468 1468 1468 1468 1468 1468 1467 1467 1467 1467 1466 1466
1456 1456 1455 1455 1455 1455 1455 1455 1456 1455 1456 1456 1456 1456 1456 1456 1457 1457 1458 1459 1459 1459 1459 1459 1459 1459 1460 1461 1462 1463 1464 1465 1465 1466 1466 1466 1466 1465 1465 1465 1464 1463 1464 1463
1455 1455 1455 1455 1455 1454 1453 1453 1453 1453 1453 1454 1454 1454 1454 1453 1454 1454 1455 1456 1456 1455 1455 1455 1455 1455 1456 1457 1458 1459 1460 1461 1462 1462 1463 1463 1463 1463 1463 1463 1462 1461 1461 1460
1454 1454 1453 1453 1452 1452 1451 1452 1451 1451 1451 1451 1451 1451 1451 1451 1451 1452 1452 1453 1452 1452 1452 1452 1452 1452 1453 1454 1455 1456 1457 1458 1458 1459 1459 1460 1460 1460 1460 1460 1460 1459 1459 1458
1453 1452 1452 1452 1451 1451 1451 1450 1450 1449 1449 1449 1449 1449 1449 1449 1449 1449 1449 1449 1448 1448 1449 1449 1448 1449 1450 1451 1452 1453 1454 1455 1455 1456 1457 1456 1456 1457 1457 1457 1457 1457 1457 1456
1451 1451 1451 1450 1450 1449 1449 1448 1448 1447 1447 1447 1447 1446 1446 1446 1446 1446 1446 1446 1446 1445 1445 1445 1445 1446 1447 1448 1449 1450 1451 1452 1452 1453 1454 1453 1453 1453 1454 1454 1454 1454 1454 1454
1449 1449 1448 1448 1448 1448 1447 1447 1446 1445 1445 1444 1444 1444 1444 1444 1444 1443 1443 1443 1442 1442 1442 1443 1443 1443 1444 1445 1446 1447 1448 1448 1449 1449 1450 1450 1450 1450 1451 1451 1451 1451 1451 1451
1448 1447 1447 1447 1447 1447 1446 1445 1444 1443 1443 1442 1442 1442 1442 1441 1441 1441 1441 1440 1440 1440 1440 1441 1441 1441 1442 1443 1443 1444 1445 1446 1446 1446 1446 1447 1447 1448 1448 1448 1448 1448 1448 1448
1448 1447 1447 1446 1446 1446 1445 1444 1443 1442 1441 1440 1440 1440 1440 1440 1440 1440 1439 1439 1438 1438 1438 1438 1439 1439 1440 1441 1441 1442 1443 1443 1444 1444 1444 1444 1445 1445 1445 1446 1445 1445 1445 1445
1447 1447 1446 1446 1445 1444 1444 1443 1442 1441 1440 1439 1439 1438 1438 1438 1438 1438 1438 1438 1437 1436 1436 1437 1437 1438 1439 1440 1440 1440 1441 1441 1441 1441 1441 1442 1442 1442 1443 1443 1443 1443 1443 1443
1447 1447 1446 1445 1444 1443 1443 1442 1441 1440 1439 1438 1438 1437 1437 1437 1437 1437 1436 1437 1436 1436 1436 1436 1436 1436 1437 1437 1438 1438 1438 1438 1439 1439 1439 1439 1439 1440 1440 1440 1441 1441 1441 1441
1447 1446 1445 1445 1444 1443 1442 1442 1441 1440 1439 1439 1438 1438 1437 1437 1436 1436 1436 1436 1435 1435 1435 1435 1435 1434 1435 1435 1435 1436 1436 1436 1436 1436 1437 1437 1437 1437 1438 1438 1439 1438 1439 1439
1447 1446 1445 1444 1443 1443 1442 1441 1441 1440 1439 1439 1438 1438 1437 1437 1436 1436 1435 1435 1434 1434 1433 1433 1433 1433 1433 1433 1434 1433 1433 1434 1434 1434 1434 1434 1434 1435 1435 1436 1436 1437 1437 1437
1446 1446 1445 1444 1444 1443 1442 1441 1441 1440 1439 1438 1438 1437 1437 1436 1436 1435 1434 1434 1433 1433 1432 1432 1431 1431 1431 1431 1431 1431 1432 1432 1432 1432 1432 1432 1432 1433 1433 1434 1434 1435 1435 1436
1446 1445 1445 1444 1444 1443 1443 1442 1440 1439 1439 1438 1437 1436 1436 1436 1435 1435 1434 1433 1433 1432 1432 1431 1430 1430 1430 1430 1430 1430 1430 1430 1430 1430 1430 1431 1431 1432 1432 1432 1433 1434 1434 1434